Weather Service Report


469 
ASUS44 KLZK 271905
RWRLZK

WEATHER ROUNDUP FOR ARKANSAS
NATIONAL WEATHER SERVICE LITTLE ROCK AR
200 PM CDT THU JUL 27 2017

NOTE: "FAIR" INDICATES FEW OR NO CLOUDS BELOW 12,000 FEET WITH NO
SIGNIFICANT WEATHER AND/OR OBSTRUCTIONS TO VISIBILITY.

ARZ001-003-010-029-272000-
NORTHWEST ARKANSAS
  
CITY           SKY/WX    TMP DP  RH WIND       PRES   REMARKS
FAYETTEVILLE   CLOUDY    85  74  69 SW6       29.98F HX  92           
FORT SMITH     CLOUDY    91  73  55 CALM      29.95F HX  99           
HARRISON       LGT RAIN  80  74  81 SW6       30.00F HX  85           
BENTONVILLE    CLOUDY    82  73  74 CALM      29.99F HX  88           
ROGERS         CLOUDY    85  73  67 S8        29.99F HX  91           
SILOAM SPGS    CLOUDY    86  70  58 S8        29.97F HX  90           
HIGHFILL       CLOUDY    84  74  71 S8        29.98F HX  91           
SPRINGDALE     PTSUNNY   86  73  66 S5        29.99F HX  93           
$$

ARZ004-005-016-272000-
NORTH CENTRAL ARKANSAS
  
CITY           SKY/WX    TMP DP  RH WIND       PRES   REMARKS
BATESVILLE     CLOUDY    88  73  62 SW5       29.97F HX  96           
FLIPPIN        CLOUDY    79  72  78 E3        29.96F                  
$$

ARZ040-041-272000-
WEST CENTRAL ARKANSAS
  
CITY           SKY/WX    TMP DP  RH WIND       PRES   REMARKS
MENA           PTSUNNY   95  72  46 SW3       30.01F HX 103           
MOUNT IDA      MOSUNNY   94  65  38 VRB5      29.97F HX  96           
$$

ARZ009-017-025-026-028-272000-
NORTHEAST ARKANSAS
  
CITY           SKY/WX    TMP DP  RH WIND       PRES   REMARKS
JONESBORO      CLOUDY    90  77  65 W8        29.95F HX 103           
WALNUT RIDGE   CLOUDY    88  73  62 W3        29.96F HX  96           
BLYTHEVILLE    CLOUDY    91  78  65 W6        29.95F HX 106           
$$

ARZ022-023-033-042-044-272000-
CENTRAL ARKANSAS
  
CITY           SKY/WX    TMP DP  RH WIND       PRES   REMARKS
LITTLE ROCK    CLOUDY    92  76  59 S6        29.97F HX 104           
N LITTLE ROCK    N/A     93  76  57 SW6       29.95F HX 104           
JACKSONVILLE   CLOUDY    96  76  53 S3        29.96F HX 110           
CONWAY           N/A     97  73  46 W7        29.94F HX 107           
SEARCY         CLOUDY    93  79  63 SW6       29.97F HX 110           
HOT SPRINGS    CLOUDY    94  73  50 W7        29.98F HX 103           
RUSSELLVILLE   CLOUDY    93  73  52 SW3       29.94F HX 102           
CLINTON        FAIR      86  73  66 W5        29.97F HX  93           
$$

ARZ036-272000-
EAST ARKANSAS
  
CITY           SKY/WX    TMP DP  RH WIND       PRES   REMARKS
WEST MEMPHIS   CLOUDY    92  77  61 SW9       29.96F HX 105           
$$

ARZ050-053-066-070-073-272000-
SOUTHWEST ARKANSAS
  
CITY           SKY/WX    TMP DP  RH WIND       PRES   REMARKS
ARKADELPHIA    FAIR      93  76  57 SW7       29.99F HX 105           
CAMDEN         PTSUNNY   95  72  46 W5        29.99F HX 103           
TEXARKANA      CLOUDY    93  71  48 VRB7      30.00F HX 100           
EL DORADO      PTSUNNY   93  71  48 MISG      30.02F HX 100           
DE QUEEN       CLOUDY    92  76  59 SW7       29.97F HX 104           
$$

ARZ056-057-069-272000-
SOUTHEAST ARKANSAS
  
CITY           SKY/WX    TMP DP  RH WIND       PRES   REMARKS
PINE BLUFF     CLOUDY    92  74  55 SW10      29.99F HX 101           
STUTTGART      CLOUDY    93  70  46 SW9       29.99F HX  99           
MONTICELLO     PTSUNNY   93  73  52 W9        30.00F HX 102           

$$


  

Return to Home page


Western Regional Climate Center, wrcc@dri.edu